Location: *
(58.4167°N, 22.5000°E)
Time: 23:34:02
(UTC+00:00)

Cosmos 2227 Rocket - Pass Details

Date: 22 September 2019
Orbit: 837 x 847 km, 71.0° (Epoch: 22 October)

Event Time Altitude Azimuth Distance (km) Brightness Sun altitude
Rises 19:49:42 0° 236° (WSW) 3,396 5.5 -24.1°
Reaches altitude 10° 19:52:13 10° 242° (WSW) 2,465 4.8 -24.3°
Maximum altitude 19:57:44 52° 318° (NW) 1,046 3.0 -24.8°
Drops below altitude 10° 20:03:18 10° 35° (NE) 2,482 4.8 -25.3°
Sets 20:05:50 0° 41° (NE) 3,421 5.5 -25.5°
